Reflectivity
-20 -1 3 7 -20 -18 8 -20 -8 -6 -4 -20 -19 -14 -7 -20 -20 -20 -20 -20 -20 -20
-20 16 8 -4 19 4 -20 -9 -20 -3 9 -20 10 -15 -20 -20 -20 -20 -20 -20 -20 -20
-9 9 8 16 -11 -12 -13 -20 -4 -19 -19 -3 -20 -20 -20 -20 -20 -20 -20 -20 -20 -20
1 7 10 -20 11 17 -20 -20 -20 -20 -20 -20 -20 -20 -20 -20 -20 -20 -20 -20 -20 -20
-1 -13 -4 -12 -12 -17 -20 -20 -20 -20 -20 -20 -20 -20 -20 -20 -20 -20 -20 -20 -20 -20
-20 3 -20 -20 -20 -20 -20 -20 -20 -20 -20 -20 -20 -20 -20 -20 -20 -20 -20 -20 -20 -20
-20 -20 -20 -20 -20 -20 -20 -20 -20 -20 -20 -20 -20 -20 -20 -20 -20 -20 -20 -20 -20 -20
-20 -20 -20 -20 -20 -20 -20 -20 -20 -20 -20 -20 -20 -20 -20 -20 -20 -20 -20 -20 -20 -20
-20 -20 -20 -20 -20 -20 -20 -20 -20 -20 -20 9 -1 -20 -0 -13 -20 -20 -20 -20 -20 -10
-20 -20 -20 -20 -20 -20 -20 -20 -20 -18 -8 20 -20 1 1 -16 -17 -20 -20 -20 -20 -20
-20 -20 -20 -20 -20 -20 -20 -20 -20 -20 17 -4 -9 8 -5 -3 -20 -20 -20 -20 -20 -20
-20 -20 -20 -20 -20 -20 -20 -20 -20 9 2 -5 10 9 -5 -20 -20 -20 -20 -20 -20 -20
-20 -20 -20 -20 -20 -20 -20 -18 5 13 -17 15 10 8 -13 -13 -20 -20 -20 -20 -20 13
-20 -20 -20 -20 -20 -20 -16 -9 22 -3 3 12 9 -1 -20 -20 -20 -20 -20 -20 -20 -20
Wind_Speed
12 9 9 10 9 6 4 6 6 6 6 6 7 5 5 3 2 2 2 4 3 2
12 12 11 10 9 7 9 6 7 6 8 6 6 4 3 2 1 2 2 3 2 2
11 10 11 10 10 8 9 8 7 7 6 6 4 4 5 4 4 4 2 3 4 5
12 13 11 11 10 9 8 8 7 7 7 6 6 5 5 4 3 4 4 4 4 5
11 11 12 11 10 9 9 8 7 7 6 6 6 5 4 2 2 3 3 4 5 5
13 11 10 10 9 9 9 7 7 6 6 6 4 4 2 4 5 4 4 4 5 7
14 13 11 10 9 9 8 7 7 7 6 5 4 3 6 5 4 3 4 5 7 7
12 12 11 10 9 8 7 7 8 8 6 4 4 5 5 4 3 4 6 6 7 5
16 13 10 9 8 7 7 7 7 6 6 6 5 8 6 3 2 4 6 6 8 7
15 13 11 9 8 8 7 6 6 5 6 8 4 4 2 3 1 3 4 5 7 7
14 12 8 8 7 6 4 5 5 5 9 5 2 1 0 3 2 3 4 4 6 7
15 13 10 9 7 5 5 4 5 8 5 4 2 2 1 2 1 2 3 3 5 5
14 14 11 10 9 6 4 5 7 4 4 5 3 2 3 3 0 2 2 3 4 7
12 12 11 9 6 6 6 6 5 4 4 4 4 3 7 7 2 1 2 3 4 4
Wind_Direction
151 156 156 154 145 136 133 126 125 122 89 101 85 83 70 72 51 32 22 9 358 337
154 152 148 137 128 132 126 118 110 106 103 102 97 88 89 87 55 38 15 347 5 340
144 133 130 127 124 115 113 111 107 102 120 97 95 78 79 68 50 54 22 8 348 320
141 138 131 123 122 119 113 112 113 115 99 95 90 79 78 59 59 37 4 349 334 321
126 128 125 124 121 122 115 108 114 109 109 98 96 87 78 68 12 26 2 331 311 298
135 131 124 119 119 113 116 115 115 116 109 108 107 108 122 67 53 24 341 308 300 293
140 135 132 128 124 125 128 128 122 107 110 115 144 114 73 62 19 326 303 293 294 292
130 127 126 125 127 128 129 122 120 122 128 143 99 78 71 47 338 304 318 290 293 296
135 130 126 126 134 131 121 123 124 137 133 100 77 66 49 28 313 311 299 307 323 315
132 126 135 137 137 124 132 136 136 129 118 85 78 57 28 5 303 289 292 309 318 324
125 122 110 107 114 114 142 149 138 148 84 104 110 45 16 2 328 305 299 299 312 317
127 127 123 131 140 157 151 144 158 92 126 134 155 225 147 53 355 287 316 310 309 320
129 133 140 148 157 160 156 162 100 130 147 166 170 178 71 36 12 349 315 321 293 308
123 127 141 138 154 154 153 121 123 160 150 164 150 87 52 23 23 300 321 310 315 307